Content
SEND FEEDBACK

Daily
Averages
Monthly
Summary
United States of America

CANTON, SOUTH DAKOTA


Home > North America > United States > South Dakota
Elevation: 1323 feet     Latitude: 43 18N     Longitude: 096 40W

WEATHER
 
SELECT A DAY
Number of Records: 202,979;   Date Range: 1/1/95 - 7/27/14
 
SHARE

PRINT THIS DATA

[ ← Previous Day ]
WEATHER ALMANAC - FEBRUARY 17, 2013
[ Next Day → ]
[ °C ]   °F
Weather ElementAverageHighLow
Temperature33.6 °F44.1 °F (2:56 pm)23 °F (5:56 am)
Dewpoint26.4 °F33.1 °F (8:56 pm)19 °F (7:56 am)
Humidity75.8 %88 % (5:56 am)58 % (2:56 pm)
Barometer29.75 in30.00 in (1:56 am)29.55 in (7:56 pm)
Wind Speed11.7 mph23 mph (2:56 pm)
Wind Gust27.6 mph (1:56 pm)
Weather ElementAverage
Visibility10 mi
Wind DirectionS (179.2 °)

Weather ElementTotal
Precipitation---
Heating Degree Days31.5 (Base 65)
Averaged from 24 records on February 17, 2013
WEATHER CONDITIONS BREAKOUT
WIND DIRECTION BREAKOUT
WEATHER BY HOUR - FEBRUARY 17, 2013
[ °C ]   °F
Local TimeTemperatureDewpointHumidityBarometerVisibilityWind DirectionWind SpeedGust SpeedPrecipitationEventsConditions
1:43 AM26.6 °F23.0 °F86 %29.95 in10.0 miSSE (160°)8.1 mphScattered Clouds
1:56 AM27.0 °F23.0 °F85 %30.00 in10.0 miSSE (160°)9.2 mphClear
2:56 AM26.1 °F21.9 °F84 %30.00 in10.0 miSSE (160°)9.2 mphClear
3:56 AM25.0 °F21.0 °F85 %29.97 in10.0 miSouth (170°)11.5 mphClear
4:56 AM24.1 °F19.9 °F84 %29.94 in10.0 miSSE (150°)10.4 mphClear
5:56 AM23.0 °F19.9 °F88 %29.93 in10.0 miSouth (170°)9.2 mphClear
6:56 AM23.0 °F19.9 °F88 %29.92 in10.0 miSouth (170°)9.2 mphClear
7:56 AM23.0 °F19.0 °F85 %29.90 in10.0 miSouth (170°)9.2 mphClear
8:56 AM25.0 °F19.9 °F81 %29.88 in10.0 miSouth (170°)13.8 mph18.4 mphClear
9:56 AM28.0 °F21.9 °F78 %29.85 in10.0 miSSE (160°)10.4 mphClear
10:56 AM32.0 °F24.1 °F73 %29.81 in10.0 miSSE (160°)15.0 mph20.7 mphClear
11:56 AM36.0 °F26.1 °F67 %29.77 in10.0 miSouth (170°)16.1 mph19.6 mphClear
12:56 PM39.0 °F28.0 °F65 %29.72 in10.0 miSSE (160°)15.0 mphClear
1:56 PM42.1 °F30.0 °F62 %29.66 in10.0 miSSE (160°)19.6 mph27.6 mphClear
2:56 PM44.1 °F30.0 °F58 %29.60 in10.0 miSouth (170°)23.0 mph27.6 mphClear
3:56 PM44.1 °F30.9 °F60 %29.59 in10.0 miSouth (180°)17.3 mphClear
4:56 PM43.0 °F30.9 °F62 %29.57 in10.0 miSSE (160°)12.7 mph21.9 mphClear
5:56 PM42.1 °F30.9 °F65 %29.56 in10.0 miSSE (150°)8.1 mphClear
6:56 PM41.0 °F30.9 °F67 %29.56 in10.0 miSouth (170°)13.8 mphClear
7:56 PM39.9 °F32.0 °F73 %29.55 in10.0 miSouth (190°)10.4 mphClear
8:56 PM39.9 °F33.1 °F77 %29.55 in10.0 miSSW (200°)10.4 mphClear
9:56 PM39.0 °F33.1 °F79 %29.56 in10.0 miWSW (240°)4.6 mphClear
10:56 PM37.0 °F32.0 °F82 %29.59 in10.0 miWSW (240°)3.5 mphClear
11:56 PM36.0 °F32.0 °F86 %29.60 in10.0 miNW (310°)10.4 mphClear
Hourly data recorded from KFSD, located miles away from Canton, South Dakota







STORIES FROM OUR PARTNERS